,,PA_Meas_PMT16A,,PR_Meas_QMR101_102,,RH_Meas_QMH101,,SR_Meas_QMS101,,TA_Meas_QMH101,,GenWind,,GenWind,
time,status,PA,status,PR,status,RH,status,SR,status,TA,status,DirAvg,status,SpdAvg,
2009-12-12, 00:00:04,VALID,916.519,VALID,0,VALID,90.246,VALID,0,VALID,21.1429,VALID,135,VALID,0.0890625,
2009-12-12, 00:01:04,VALID,916.515,VALID,0,VALID,90.1316,VALID,0,VALID,21.1234,VALID,135,VALID,0,
2009-12-12, 00:02:04,VALID,916.492,VALID,0,VALID,89.9792,VALID,0,VALID,21.0844,VALID,135,VALID,0.6,
2009-12-12, 00:03:04,VALID,916.48,VALID,0,VALID,89.9868,VALID,0,VALID,21.1234,VALID,135,VALID,0.323438,
2009-12-12, 00:04:04,VALID,916.456,VALID,0,VALID,90.063,VALID,0,VALID,21.1039,VALID,135,VALID,0.525391,
2009-12-12, 00:05:04,VALID,916.483,VALID,0,VALID,90.2079,VALID,0,VALID,21.0844,VALID,135,VALID,0.419922,
2009-12-12, 00:06:04,VALID,916.442,VALID,0,VALID,90.1545,VALID,0,VALID,21.0649,VALID,135,VALID,0.404687,
2009-12-12, 00:07:04,VALID,916.443,VALID,0,VALID,90.5662,VALID,0,VALID,21.0454,VALID,135,VALID,0.462109,
2009-12-12, 00:08:04,VALID,916.454,VALID,0,VALID,90.7034,VALID,0,VALID,20.9658,VALID,135,VALID,0.463281,
2009-12-12, 00:09:04,VALID,916.457,VALID,0,VALID,90.5814,VALID,0,VALID,20.9853,VALID,135,VALID,0.385156,
2009-12-12, 00:10:04,VALID,916.389,VALID,0,VALID,90.6119,VALID,0,VALID,21.0259,VALID,135,VALID,0.496875,
2009-12-12, 00:11:04,VALID,916.407,VALID,0,VALID,90.3451,VALID,0,VALID,20.9853,VALID,135,VALID,0.804297,
2009-12-12, 00:12:04,VALID,916.403,VALID,0,VALID,90.307,VALID,0,VALID,21.0048,VALID,135,VALID,0.625781,
2009-12-12, 00:13:04,VALID,916.364,VALID,0,VALID,90.246,VALID,0,VALID,21.0259,VALID,135,VALID,0.458594,
2009-12-12, 00:14:04,VALID,916.344,VALID,0,VALID,90.307,VALID,0,VALID,20.9869,VALID,135,VALID,0.388672,
2009-12-12, 00:15:04,VALID,916.309,VALID,0,VALID,90.5891,VALID,0,VALID,20.9284,VALID,135,VALID,0.816406,
2009-12-12, 00:16:04,VALID,916.293,VALID,0,VALID,90.8254,VALID,0,VALID,20.8894,VALID,135,VALID,0.100781,
2009-12-12, 00:17:04,VALID,916.29,VALID,0,VALID,90.8025,VALID,0,VALID,20.8309,VALID,135,VALID,0.625781,
2009-12-12, 00:18:04,VALID,916.294,VALID,0,VALID,91.4276,VALID,0,VALID,20.6928,VALID,135,VALID,0.917578,
2009-12-12, 00:19:04,VALID,916.269,VALID,0,VALID,91.9231,VALID,0,VALID,20.6163,VALID,135,VALID,0.667969,
2009-12-12, 00:20:04,VALID,916.254,VALID,0,VALID,92.251,VALID,0,VALID,20.5578,VALID,135,VALID,0.537109,
2009-12-12, 00:21:04,VALID,916.224,VALID,0,VALID,92.655,VALID,0,VALID,20.5578,VALID,135,VALID,0.532422,
2009-12-12, 00:22:04,VALID,916.264,VALID,0,VALID,92.7617,VALID,0,VALID,20.5367,VALID,135,VALID,0.75,
2009-12-12, 00:23:04,VALID,916.243,VALID,0,VALID,93.0438,VALID,0,VALID,20.5383,VALID,135,VALID,0.798437,
2009-12-12, 00:24:04,VALID,916.229,VALID,0,VALID,93.2649,VALID,0,VALID,20.5383,VALID,135,VALID,0.647266,
2009-12-12, 00:25:04,VALID,916.235,VALID,0,VALID,93.303,VALID,0,VALID,20.5383,VALID,135,VALID,0.404687,
2009-12-12, 00:26:04,VALID,916.18,VALID,0,VALID,93.1658,VALID,0,VALID,20.5383,VALID,135,VALID,0.859375,
2009-12-12, 00:27:04,VALID,916.184,VALID,0,VALID,92.8075,VALID,0,VALID,20.5968,VALID,135,VALID,0.850781,
2009-12-12, 00:28:04,VALID,916.18,VALID,0,VALID,92.4873,VALID,0,VALID,20.6553,VALID,135,VALID,1.04805,
2009-12-12, 00:29:04,VALID,916.143,VALID,0,VALID,92.1366,VALID,0,VALID,20.7138,VALID,135,VALID,1.00273,
2009-12-12, 00:30:04,VALID,916.107,VALID,0,VALID,91.9155,VALID,0,VALID,20.7333,VALID,135,VALID,0.626562,
2009-12-12, 00:31:04,VALID,916.112,VALID,0,VALID,91.7707,VALID,0,VALID,20.7528,VALID,135,VALID,0.496875,
2009-12-12, 00:32:04,VALID,916.108,VALID,0,VALID,91.6868,VALID,0,VALID,20.7528,VALID,135,VALID,0.333984,
2009-12-12, 00:33:04,VALID,916.113,VALID,0,VALID,91.5648,VALID,0,VALID,20.7513,VALID,135,VALID,0.343359,
2009-12-12, 00:34:04,VALID,916.05,VALID,0,VALID,91.5648,VALID,0,VALID,20.7528,VALID,135,VALID,0.360938,
2009-12-12, 00:35:04,VALID,916.078,VALID,0,VALID,91.7249,VALID,0,VALID,20.7333,VALID,135,VALID,0.241797,
2009-12-12, 00:36:04,VALID,916.104,VALID,0,VALID,91.5725,VALID,0,VALID,20.7918,VALID,135,VALID,0.412109,
2009-12-12, 00:37:04,VALID,916.09,VALID,0,VALID,91.4429,VALID,0,VALID,20.7723,VALID,135,VALID,0.386328,
2009-12-12, 00:38:04,VALID,916.046,VALID,0,VALID,91.3209,VALID,0,VALID,20.8113,VALID,135,VALID,0.250781,
2009-12-12, 00:39:04,VALID,916.076,VALID,0,VALID,91.1761,VALID,0,VALID,20.7918,VALID,135,VALID,0.460547,
2009-12-12, 00:40:04,VALID,916.029,VALID,0,VALID,91.3057,VALID,0,VALID,20.7513,VALID,135,VALID,0.266016,
2009-12-12, 00:41:04,VALID,916.007,VALID,0,VALID,91.7554,VALID,0,VALID,20.7138,VALID,135,VALID,0.307813,
2009-12-12, 00:42:04,VALID,916.026,VALID,0,VALID,92.0223,VALID,0,VALID,20.6959,VALID,135,VALID,0.00078125,
2009-12-12, 00:43:04,VALID,916.022,VALID,0,VALID,92.0756,VALID,0,VALID,20.6748,VALID,135,VALID,0.571094,
2009-12-12, 00:44:04,VALID,916.005,VALID,0,VALID,91.7554,VALID,0,VALID,20.7333,VALID,135,VALID,0.692578,
2009-12-12, 00:45:04,VALID,916.032,VALID,0,VALID,91.3285,VALID,0,VALID,20.8113,VALID,135,VALID,0.460156,
2009-12-12, 00:46:04,VALID,915.986,VALID,0,VALID,90.9702,VALID,0,VALID,20.8504,VALID,135,VALID,0.382813,
2009-12-12, 00:47:04,VALID,916.014,VALID,0,VALID,91.077,VALID,0,VALID,20.8113,VALID,135,VALID,0.531641,
2009-12-12, 00:48:04,VALID,916.032,VALID,0,VALID,91.0312,VALID,0,VALID,20.8129,VALID,135,VALID,0.460938,
2009-12-12, 00:49:04,VALID,916.032,VALID,0,VALID,91.2599,VALID,0,VALID,20.7723,VALID,135,VALID,0.830859,
2009-12-12, 00:50:04,VALID,916.031,VALID,0,VALID,91.42,VALID,0,VALID,20.7333,VALID,135,VALID,0.632813,
2009-12-12, 00:51:04,VALID,916.058,VALID,0,VALID,91.6563,VALID,0,VALID,20.7123,VALID,135,VALID,0.371875,
2009-12-12, 00:52:04,VALID,916.039,VALID,0,VALID,91.5191,VALID,0,VALID,20.7723,VALID,135,VALID,0.00546875,
2009-12-12, 00:53:04,VALID,916.055,VALID,0,VALID,91.2599,VALID,0,VALID,20.8309,VALID,135,VALID,0.466016,
2009-12-12, 00:54:04,VALID,916.024,VALID,0,VALID,90.894,VALID,0,VALID,20.9089,VALID,135,VALID,0.5,
2009-12-12, 00:55:04,VALID,916.091,VALID,0,VALID,90.5509,VALID,0,VALID,20.9674,VALID,135,VALID,0.819141,
2009-12-12, 00:56:04,VALID,916.018,VALID,0,VALID,90.4213,VALID,0,VALID,20.9674,VALID,135,VALID,0.590234,
2009-12-12, 00:57:04,VALID,915.998,VALID,0,VALID,90.3451,VALID,0,VALID,20.9658,VALID,135,VALID,0.603906,
2009-12-12, 00:58:04,VALID,916,VALID,0,VALID,90.3451,VALID,0,VALID,20.9869,VALID,135,VALID,0.626953,
2009-12-12, 00:59:04,VALID,915.996,VALID,0,VALID,90.3604,VALID,0,VALID,20.9869,VALID,135,VALID,0.340234,
2009-12-12, 01:00:04,VALID,916,VALID,0,VALID,90.3908,VALID,0,VALID,20.9674,VALID,135,VALID,0.5625,
2009-12-12, 01:01:04,VALID,916.001,VALID,0,VALID,90.2536,VALID,0,VALID,20.9869,VALID,135,VALID,0.424219,
2009-12-12, 01:02:04,VALID,916.062,VALID,0,VALID,89.9487,VALID,0,VALID,20.9869,VALID,135,VALID,0,
2009-12-12, 01:03:04,VALID,916.085,VALID,0,VALID,90.5433,VALID,0,VALID,20.8878,VALID,135,VALID,0,
2009-12-12, 01:04:04,VALID,916.051,VALID,0,VALID,90.833,VALID,0,VALID,20.8699,VALID,135,VALID,0,
2009-12-12, 01:05:04,VALID,916.026,VALID,0,VALID,90.7491,VALID,0,VALID,20.8894,VALID,135,VALID,0,
2009-12-12, 01:06:04,VALID,916.028,VALID,0,VALID,90.7415,VALID,0,VALID,20.9284,VALID,135,VALID,0,
2009-12-12, 01:07:04,VALID,916.004,VALID,0,VALID,90.4823,VALID,0,VALID,20.9674,VALID,135,VALID,0.189063,
2009-12-12, 01:08:04,VALID,916.018,VALID,0,VALID,90.0935,VALID,0,VALID,20.9869,VALID,135,VALID,0.201562,
2009-12-12, 01:09:04,VALID,915.998,VALID,0,VALID,90.2231,VALID,0,VALID,21.0259,VALID,135,VALID,0,
2009-12-12, 01:10:04,VALID,915.998,VALID,0,VALID,90.3222,VALID,0,VALID,21.0064,VALID,135,VALID,0.101172,
2009-12-12, 01:11:04,VALID,915.977,VALID,0,VALID,90.7187,VALID,0,VALID,20.9674,VALID,135,VALID,0.206641,
2009-12-12, 01:12:04,VALID,915.993,VALID,0,VALID,90.9855,VALID,0,VALID,20.9284,VALID,135,VALID,0,
2009-12-12, 01:13:04,VALID,915.964,VALID,0,VALID,91.1151,VALID,0,VALID,20.8894,VALID,135,VALID,0,
2009-12-12, 01:14:04,VALID,915.986,VALID,0,VALID,91.1303,VALID,0,VALID,20.8894,VALID,135,VALID,0,
2009-12-12, 01:15:04,VALID,915.939,VALID,0,VALID,91.0312,VALID,0,VALID,20.8894,VALID,135,VALID,0,
2009-12-12, 01:16:04,VALID,915.946,VALID,0,VALID,90.5281,VALID,0,VALID,20.9284,VALID,135,VALID,0,
2009-12-12, 01:17:04,VALID,915.925,VALID,0,VALID,90.7796,VALID,0,VALID,20.9869,VALID,135,VALID,0.527734,
2009-12-12, 01:18:04,VALID,915.948,VALID,0,VALID,90.429,VALID,0,VALID,20.9479,VALID,135,VALID,1.33086,
2009-12-12, 01:19:04,VALID,915.947,VALID,0,VALID,90.1698,VALID,0,VALID,21.0259,VALID,136,VALID,1.39414,
2009-12-12, 01:20:04,VALID,915.948,VALID,0,VALID,89.9029,VALID,0,VALID,21.0454,VALID,136,VALID,1.29297,
2009-12-12, 01:21:04,VALID,915.913,VALID,0,VALID,89.6514,VALID,0,VALID,21.1234,VALID,151,VALID,1.10039,
2009-12-12, 01:22:04,VALID,915.893,VALID,0,VALID,89.7047,VALID,0,VALID,21.1445,VALID,151,VALID,0.903906,
2009-12-12, 01:23:04,VALID,915.873,VALID,0,VALID,89.7124,VALID,0,VALID,21.1039,VALID,151,VALID,1.10742,
2009-12-12, 01:24:04,VALID,915.818,VALID,0,VALID,89.6971,VALID,0,VALID,21.1234,VALID,151,VALID,0.816016,
2009-12-12, 01:25:04,VALID,915.77,VALID,0,VALID,89.8725,VALID,0,VALID,21.1234,VALID,151,VALID,0.637891,
2009-12-12, 01:26:04,VALID,915.735,VALID,0,VALID,89.4532,VALID,0,VALID,21.1218,VALID,151,VALID,0.866406,
2009-12-12, 01:27:04,VALID,915.698,VALID,0,VALID,89.4227,VALID,0,VALID,21.1413,VALID,151,VALID,0.454297,
2009-12-12, 01:28:04,VALID,915.685,VALID,0,VALID,89.3769,VALID,0,VALID,21.1624,VALID,151,VALID,0.497656,
2009-12-12, 01:29:04,VALID,915.693,VALID,0,VALID,89.4989,VALID,0,VALID,21.1624,VALID,151,VALID,0.125391,
2009-12-12, 01:30:04,VALID,915.661,VALID,0,VALID,89.537,VALID,0.107441,VALID,21.1413,VALID,151,VALID,0.0691406,
2009-12-12, 01:31:04,VALID,915.653,VALID,0,VALID,89.1025,VALID,0.107441,VALID,21.1413,VALID,151,VALID,0.0601562,
2009-12-12, 01:32:04,VALID,915.649,VALID,0,VALID,89.2245,VALID,0.107441,VALID,21.1608,VALID,151,VALID,0,
2009-12-12, 01:33:04,VALID,915.633,VALID,0,VALID,89.1406,VALID,0,VALID,21.1819,VALID,151,VALID,0.285547,
2009-12-12, 01:34:04,VALID,915.575,VALID,0,VALID,89.8953,VALID,0,VALID,21.1413,VALID,151,VALID,0.659766,
2009-12-12, 01:35:04,VALID,915.546,VALID,0,VALID,90.0859,VALID,0.107441,VALID,21.0828,VALID,151,VALID,0.779688,
2009-12-12, 01:36:04,VALID,915.571,VALID,0,VALID,90.2612,VALID,0.107441,VALID,21.0438,VALID,151,VALID,0.463672,
2009-12-12, 01:37:04,VALID,915.545,VALID,0,VALID,90.4366,VALID,0.107441,VALID,21.0243,VALID,151,VALID,0.392969,
2009-12-12, 01:38:04,VALID,915.54,VALID,0,VALID,90.2079,VALID,0,VALID,21.0259,VALID,151,VALID,0.279297,
2009-12-12, 01:39:04,VALID,915.547,VALID,0,VALID,90.185,VALID,0,VALID,21.0438,VALID,151,VALID,0.0382813,
2009-12-12, 01:40:04,VALID,915.567,VALID,0,VALID,90.0173,VALID,0,VALID,21.0454,VALID,151,VALID,0.408594,
2009-12-12, 01:41:04,VALID,915.55,VALID,0,VALID,89.9334,VALID,0.107441,VALID,21.0633,VALID,151,VALID,0.436719,
2009-12-12, 01:42:04,VALID,915.564,VALID,0,VALID,90.1164,VALID,0.107441,VALID,21.0844,VALID,151,VALID,0.00585938,
2009-12-12, 01:43:04,VALID,915.541,VALID,0,VALID,89.9944,VALID,0.107441,VALID,21.0438,VALID,151,VALID,0.627344,
2009-12-12, 01:44:04,VALID,915.542,VALID,0,VALID,90.0478,VALID,0.107441,VALID,21.0438,VALID,151,VALID,0.488672,
2009-12-12, 01:45:04,VALID,915.537,VALID,0,VALID,90.0707,VALID,0.107441,VALID,21.0649,VALID,151,VALID,0.528516,
2009-12-12, 01:46:04,VALID,915.518,VALID,0,VALID,90.0783,VALID,0.107441,VALID,21.0844,VALID,151,VALID,0.230859,
2009-12-12, 01:47:04,VALID,915.522,VALID,0,VALID,89.9563,VALID,0.107441,VALID,21.0649,VALID,151,VALID,0.528125,
2009-12-12, 01:48:04,VALID,915.481,VALID,0,VALID,90.1621,VALID,0.107441,VALID,21.0844,VALID,151,VALID,0.375391,
2009-12-12, 01:49:04,VALID,915.478,VALID,0,VALID,90.2384,VALID,0,VALID,21.0649,VALID,151,VALID,0.225391,
2009-12-12, 01:50:04,VALID,915.472,VALID,0,VALID,90.1545,VALID,0,VALID,21.0048,VALID,151,VALID,0.225,
2009-12-12, 01:51:04,VALID,915.453,VALID,0,VALID,90.2917,VALID,0,VALID,20.9674,VALID,151,VALID,0.307031,
2009-12-12, 01:52:04,VALID,915.419,VALID,0,VALID,90.5357,VALID,0.107441,VALID,20.8894,VALID,151,VALID,0.278516,
2009-12-12, 01:53:04,VALID,915.451,VALID,0,VALID,90.894,VALID,0,VALID,20.8293,VALID,151,VALID,0,
2009-12-12, 01:54:04,VALID,915.423,VALID,0,VALID,91.1303,VALID,0,VALID,20.8113,VALID,151,VALID,0.142188,
2009-12-12, 01:55:04,VALID,915.395,VALID,0,VALID,91.3514,VALID,0,VALID,20.7513,VALID,151,VALID,0.484766,
2009-12-12, 01:56:04,VALID,915.391,VALID,0,VALID,91.4962,VALID,0.107441,VALID,20.7723,VALID,151,VALID,0.583203,
2009-12-12, 01:57:04,VALID,915.41,VALID,0,VALID,91.6258,VALID,0.107441,VALID,20.7513,VALID,152,VALID,0.979688,
2009-12-12, 01:58:04,VALID,915.43,VALID,0,VALID,91.5344,VALID,0,VALID,20.7723,VALID,152,VALID,0.825,
2009-12-12, 01:59:04,VALID,915.409,VALID,0,VALID,91.4962,VALID,0,VALID,20.7723,VALID,152,VALID,0.670703,
2009-12-12, 02:00:04,VALID,915.406,VALID,0,VALID,91.6106,VALID,0.107441,VALID,20.7123,VALID,152,VALID,0.31875,
2009-12-12, 02:01:04,VALID,915.402,VALID,0,VALID,91.7631,VALID,0.107441,VALID,20.6943,VALID,152,VALID,0.251563,
2009-12-12, 02:02:04,VALID,915.363,VALID,0,VALID,91.8469,VALID,0,VALID,20.6358,VALID,152,VALID,0.506641,
2009-12-12, 02:03:04,VALID,915.388,VALID,0,VALID,92.0909,VALID,0,VALID,20.6163,VALID,152,VALID,1.04727,
2009-12-12, 02:04:04,VALID,915.353,VALID,0,VALID,92.4568,VALID,0.107441,VALID,20.5562,VALID,152,VALID,0.538281,
2009-12-12, 02:05:04,VALID,915.348,VALID,0,VALID,92.6093,VALID,0.107441,VALID,20.5757,VALID,153,VALID,0.503516,
2009-12-12, 02:06:04,VALID,915.334,VALID,0,VALID,92.5025,VALID,0.107441,VALID,20.5952,VALID,153,VALID,0.701172,
2009-12-12, 02:07:04,VALID,915.298,VALID,0,VALID,92.3729,VALID,0,VALID,20.6358,VALID,153,VALID,0.835938,
2009-12-12, 02:08:04,VALID,915.294,VALID,0,VALID,92.2738,VALID,0,VALID,20.6163,VALID,153,VALID,0.614453,
2009-12-12, 02:09:04,VALID,915.287,VALID,0,VALID,92.2586,VALID,0,VALID,20.6163,VALID,154,VALID,0.781641,
2009-12-12, 02:10:04,VALID,915.246,VALID,0,VALID,92.3882,VALID,0.107441,VALID,20.5968,VALID,154,VALID,0.896875,
2009-12-12, 02:11:04,VALID,915.209,VALID,0,VALID,92.5864,VALID,0,VALID,20.5773,VALID,154,VALID,0.930469,
2009-12-12, 02:12:04,VALID,915.217,VALID,0,VALID,92.5559,VALID,0,VALID,20.5562,VALID,154,VALID,0.701172,
2009-12-12, 02:13:04,VALID,915.168,VALID,0,VALID,92.4492,VALID,0.107441,VALID,20.5562,VALID,154,VALID,0.883594,
2009-12-12, 02:14:04,VALID,915.156,VALID,0,VALID,92.5788,VALID,0.107441,VALID,20.6342,VALID,154,VALID,0.804688,
2009-12-12, 02:15:04,VALID,915.188,VALID,0,VALID,92.1823,VALID,0,VALID,20.6928,VALID,154,VALID,0.406641,
2009-12-12, 02:16:04,VALID,915.15,VALID,0,VALID,92.0832,VALID,0.107441,VALID,20.7333,VALID,154,VALID,0.792969,
2009-12-12, 02:17:04,VALID,915.125,VALID,0,VALID,92.0756,VALID,0.107441,VALID,20.7123,VALID,154,VALID,0.646484,
2009-12-12, 02:18:04,VALID,915.158,VALID,0,VALID,92.1595,VALID,0,VALID,20.7138,VALID,154,VALID,0.730078,
2009-12-12, 02:19:04,VALID,915.158,VALID,0,VALID,92.1747,VALID,0.107441,VALID,20.7138,VALID,154,VALID,0.667188,
2009-12-12, 02:20:04,VALID,915.158,VALID,0,VALID,92.19,VALID,0.107441,VALID,20.6943,VALID,154,VALID,0.546875,
2009-12-12, 02:21:04,VALID,915.133,VALID,0,VALID,92.3272,VALID,0,VALID,20.6358,VALID,154,VALID,0.885938,
2009-12-12, 02:22:04,VALID,915.158,VALID,0,VALID,92.6702,VALID,0.107441,VALID,20.5367,VALID,154,VALID,0.637891,
2009-12-12, 02:23:04,VALID,915.143,VALID,0,VALID,93.0362,VALID,0.107441,VALID,20.4993,VALID,154,VALID,0.795313,
2009-12-12, 02:24:04,VALID,915.173,VALID,0,VALID,93.364,VALID,0.107441,VALID,20.4197,VALID,154,VALID,0.356641,
2009-12-12, 02:25:04,VALID,915.179,VALID,0,VALID,93.7147,VALID,0.107441,VALID,20.4197,VALID,154,VALID,0.566797,
2009-12-12, 02:26:04,VALID,915.155,VALID,0,VALID,93.8976,VALID,0.107441,VALID,20.4197,VALID,154,VALID,0.6,
2009-12-12, 02:27:04,VALID,915.177,VALID,0,VALID,93.7985,VALID,0.107441,VALID,20.4002,VALID,154,VALID,0.596875,
2009-12-12, 02:28:04,VALID,915.186,VALID,0,VALID,93.9434,VALID,0.107441,VALID,20.4002,VALID,154,VALID,0.365234,
2009-12-12, 02:29:04,VALID,915.213,VALID,0,VALID,94.073,VALID,0,VALID,20.4197,VALID,156,VALID,0.410156,
2009-12-12, 02:30:04,VALID,915.243,VALID,0,VALID,94.1187,VALID,0,VALID,20.4603,VALID,192,VALID,0.433594,
2009-12-12, 02:31:04,VALID,915.243,VALID,0,VALID,94.0425,VALID,0,VALID,20.4993,VALID,192,VALID,0.315625,
2009-12-12, 02:32:04,VALID,915.245,VALID,0,VALID,93.9738,VALID,0,VALID,20.5383,VALID,192,VALID,0.741797,
2009-12-12, 02:33:04,VALID,915.241,VALID,0,VALID,93.8519,VALID,0,VALID,20.5789,VALID,192,VALID,0.528906,
2009-12-12, 02:34:04,VALID,915.265,VALID,0,VALID,93.7451,VALID,0,VALID,20.5968,VALID,155,VALID,1.18633,
2009-12-12, 02:35:04,VALID,915.273,VALID,0,VALID,93.6079,VALID,0,VALID,20.6163,VALID,155,VALID,0.39375,
2009-12-12, 02:36:04,VALID,915.275,VALID,0,VALID,93.5927,VALID,0,VALID,20.6358,VALID,155,VALID,0.542969,
2009-12-12, 02:37:04,VALID,915.279,VALID,0,VALID,93.6232,VALID,0,VALID,20.6374,VALID,155,VALID,0.196484,
2009-12-12, 02:38:04,VALID,915.311,VALID,0,VALID,93.5546,VALID,0,VALID,20.6358,VALID,155,VALID,0.359375,
2009-12-12, 02:39:04,VALID,915.313,VALID,0,VALID,93.6155,VALID,0,VALID,20.6163,VALID,155,VALID,0.568359,
2009-12-12, 02:40:04,VALID,915.311,VALID,0,VALID,93.646,VALID,0,VALID,20.6553,VALID,155,VALID,0.386328,
2009-12-12, 02:41:04,VALID,915.299,VALID,0,VALID,93.5241,VALID,0,VALID,20.6537,VALID,155,VALID,0.465625,
2009-12-12, 02:42:04,VALID,915.31,VALID,0,VALID,93.5241,VALID,0,VALID,20.6748,VALID,155,VALID,0.0773437,
2009-12-12, 02:43:04,VALID,915.33,VALID,0,VALID,93.5393,VALID,0,VALID,20.7138,VALID,155,VALID,0.105469,
2009-12-12, 02:44:04,VALID,915.345,VALID,0,VALID,93.5393,VALID,0,VALID,20.7333,VALID,155,VALID,0,
2009-12-12, 02:45:04,VALID,915.332,VALID,0,VALID,93.4555,VALID,0,VALID,20.7333,VALID,155,VALID,0.239063,
2009-12-12, 02:46:04,VALID,915.319,VALID,0,VALID,93.364,VALID,0,VALID,20.7333,VALID,155,VALID,0.445703,
2009-12-12, 02:47:04,VALID,915.305,VALID,0,VALID,93.3182,VALID,0,VALID,20.7333,VALID,155,VALID,0.357422,
2009-12-12, 02:48:04,VALID,915.292,VALID,0,VALID,93.2344,VALID,0,VALID,20.7723,VALID,155,VALID,0.127344,
2009-12-12, 02:49:04,VALID,915.305,VALID,0,VALID,93.0514,VALID,0,VALID,20.7918,VALID,155,VALID,0.00273437,
2009-12-12, 02:50:04,VALID,915.281,VALID,0,VALID,93.12,VALID,0,VALID,20.8309,VALID,155,VALID,0.178516,
2009-12-12, 02:51:04,VALID,915.278,VALID,0,VALID,92.9218,VALID,0,VALID,20.8113,VALID,155,VALID,0.0292969,
2009-12-12, 02:52:04,VALID,915.239,VALID,0,VALID,93.0133,VALID,0,VALID,20.8113,VALID,155,VALID,0.00234375,
2009-12-12, 02:53:04,VALID,915.25,VALID,0,VALID,93.0057,VALID,0,VALID,20.8113,VALID,155,VALID,0.373437,
2009-12-12, 02:54:04,VALID,915.235,VALID,0,VALID,92.9676,VALID,0,VALID,20.8113,VALID,155,VALID,0.376953,
2009-12-12, 02:55:04,VALID,915.205,VALID,0,VALID,92.9676,VALID,0,VALID,20.7918,VALID,155,VALID,0.309766,
2009-12-12, 02:56:04,VALID,915.152,VALID,0,VALID,93.1124,VALID,0,VALID,20.7903,VALID,155,VALID,0.263672,
2009-12-12, 02:57:04,VALID,915.155,VALID,0,VALID,93.242,VALID,0,VALID,20.7918,VALID,155,VALID,0,
2009-12-12, 02:58:04,VALID,915.115,VALID,0,VALID,93.1658,VALID,0,VALID,20.7723,VALID,155,VALID,0.476172,
2009-12-12, 02:59:04,VALID,915.101,VALID,0,VALID,93.181,VALID,0,VALID,20.7723,VALID,155,VALID,0.319141,
2009-12-12, 03:00:04,VALID,915.084,VALID,0,VALID,93.2877,VALID,0,VALID,20.7123,VALID,155,VALID,0.462891,
2009-12-12, 03:01:04,VALID,915.099,VALID,0,VALID,93.3868,VALID,0.107441,VALID,20.6943,VALID,155,VALID,0.474219,
2009-12-12, 03:02:04,VALID,915.053,VALID,0,VALID,93.7604,VALID,0,VALID,20.6748,VALID,155,VALID,0.522266,
2009-12-12, 03:03:04,VALID,915.077,VALID,0,VALID,93.9967,VALID,0,VALID,20.6553,VALID,155,VALID,0.750391,
2009-12-12, 03:04:04,VALID,915.059,VALID,0,VALID,94.0272,VALID,0,VALID,20.6163,VALID,155,VALID,1.11484,
2009-12-12, 03:05:04,VALID,915.051,VALID,0,VALID,94.0272,VALID,0,VALID,20.6163,VALID,155,VALID,0.579297,
2009-12-12, 03:06:04,VALID,915.05,VALID,0,VALID,93.9891,VALID,0,VALID,20.5968,VALID,78,VALID,0.604688,
2009-12-12, 03:07:04,VALID,915.035,VALID,0,VALID,93.3182,VALID,0,VALID,20.6163,VALID,129,VALID,1.51055,
2009-12-12, 03:08:04,VALID,915.027,VALID,0,VALID,93.4097,VALID,0,VALID,20.6748,VALID,136,VALID,0.585938,
2009-12-12, 03:09:04,VALID,915.018,VALID,0,VALID,93.2268,VALID,0,VALID,20.6748,VALID,59,VALID,0.849219,
2009-12-12, 03:10:04,VALID,915.007,VALID,0,VALID,93.1276,VALID,0,VALID,20.6748,VALID,94,VALID,1.29141,
2009-12-12, 03:11:04,VALID,915.002,VALID,0.2,VALID,93.2725,VALID,0,VALID,20.6943,VALID,94,VALID,0.669531,
2009-12-12, 03:12:04,VALID,914.983,VALID,0,VALID,93.1963,VALID,0,VALID,20.6748,VALID,94,VALID,1.00703,
2009-12-12, 03:13:04,VALID,914.982,VALID,0,VALID,93.2115,VALID,0,VALID,20.6748,VALID,94,VALID,0.713281,
2009-12-12, 03:14:04,VALID,914.969,VALID,0,VALID,93.2191,VALID,0,VALID,20.6764,VALID,94,VALID,1.02227,
2009-12-12, 03:15:04,VALID,914.934,VALID,0,VALID,93.2268,VALID,0,VALID,20.6553,VALID,94,VALID,0.921484,
2009-12-12, 03:16:04,VALID,914.956,VALID,0,VALID,93.3259,VALID,0,VALID,20.6553,VALID,94,VALID,0.583203,
2009-12-12, 03:17:04,VALID,914.948,VALID,0,VALID,93.364,VALID,0,VALID,20.6553,VALID,94,VALID,0.329297,
2009-12-12, 03:18:04,VALID,914.946,VALID,0,VALID,93.242,VALID,0,VALID,20.6764,VALID,94,VALID,0.951563,
2009-12-12, 03:19:04,VALID,914.931,VALID,0,VALID,93.2496,VALID,0,VALID,20.6358,VALID,94,VALID,1.25352,
2009-12-12, 03:20:04,VALID,914.914,VALID,0.2,VALID,93.7147,VALID,0,VALID,20.6943,VALID,94,VALID,0.459375,
2009-12-12, 03:21:04,VALID,914.923,VALID,0,VALID,93.5012,VALID,0,VALID,20.6748,VALID,94,VALID,0.526953,
2009-12-12, 03:22:04,VALID,914.959,VALID,0,VALID,93.4097,VALID,0,VALID,20.6553,VALID,94,VALID,0.166016,
2009-12-12, 03:23:04,VALID,914.99,VALID,0,VALID,93.4173,VALID,0,VALID,20.6553,VALID,94,VALID,0.689062,
2009-12-12, 03:24:04,VALID,914.998,VALID,0,VALID,93.5164,VALID,0,VALID,20.6358,VALID,94,VALID,0.445313,
2009-12-12, 03:25:04,VALID,915.001,VALID,0,VALID,93.5851,VALID,0,VALID,20.6358,VALID,94,VALID,0.571094,
2009-12-12, 03:26:04,VALID,915.022,VALID,0,VALID,93.3487,VALID,0,VALID,20.6163,VALID,94,VALID,0.690625,
2009-12-12, 03:27:04,VALID,915.054,VALID,0,VALID,93.4859,VALID,0,VALID,20.6358,VALID,94,VALID,0.79375,
2009-12-12, 03:28:04,VALID,915.068,VALID,0.2,VALID,93.5469,VALID,0,VALID,20.6163,VALID,94,VALID,0.743359,
2009-12-12, 03:29:04,VALID,915.062,VALID,0,VALID,93.5164,VALID,0,VALID,20.5789,VALID,94,VALID,0.63125,
2009-12-12, 03:30:04,VALID,915.057,VALID,0,VALID,93.5012,VALID,0,VALID,20.5773,VALID,94,VALID,0.582812,
2009-12-12, 03:31:04,VALID,915.063,VALID,0.2,VALID,93.6003,VALID,0,VALID,20.5773,VALID,94,VALID,0.55625,
2009-12-12, 03:32:04,VALID,915.068,VALID,0,VALID,94.2254,VALID,0,VALID,20.5773,VALID,31,VALID,1.28672,
2009-12-12, 03:33:04,VALID,915.081,VALID,0.2,VALID,94.6828,VALID,0,VALID,20.4993,VALID,40,VALID,1.18281,
2009-12-12, 03:34:04,VALID,915.075,VALID,0,VALID,94.9649,VALID,0,VALID,20.4603,VALID,40,VALID,1.11172,
2009-12-12, 03:35:04,VALID,915.108,VALID,0.2,VALID,95.3384,VALID,0,VALID,20.3823,VALID,40,VALID,0.699609,
2009-12-12, 03:36:04,VALID,915.112,VALID,0,VALID,95.4985,VALID,0,VALID,20.3433,VALID,40,VALID,1.09102,
2009-12-12, 03:37:04,VALID,915.084,VALID,0.2,VALID,95.7196,VALID,0,VALID,20.3043,VALID,73,VALID,1.01289,
2009-12-12, 03:38:04,VALID,915.072,VALID,0,VALID,95.8416,VALID,0,VALID,20.2848,VALID,72,VALID,1.3125,
2009-12-12, 03:39:04,VALID,915.062,VALID,0.2,VALID,95.9254,VALID,0,VALID,20.2653,VALID,73,VALID,0.697656,
2009-12-12, 03:40:04,VALID,915.059,VALID,0,VALID,96.0169,VALID,0,VALID,20.2458,VALID,73,VALID,0.391016,
2009-12-12, 03:41:04,VALID,915.038,VALID,0.2,VALID,96.0627,VALID,0,VALID,20.2458,VALID,73,VALID,0.0386719,
2009-12-12, 03:42:04,VALID,915.026,VALID,0,VALID,96.1084,VALID,0.107441,VALID,20.2263,VALID,72,VALID,0,
2009-12-12, 03:43:04,VALID,915.062,VALID,0.2,VALID,96.2075,VALID,0.107441,VALID,20.2458,VALID,73,VALID,0,